Lorain / Elyria, OH

5:15 AM EDT on June 26, 2017 (GMT -0400)
Lorain County Regional

Weather History for KLPR - October, 2013

Change the Weather History Date:

Wednesday, October 9, 2013

  Actual Average (KCLE) Record (KCLE)
Temperature  
Mean Temperature 56 °F -  
Max Temperature 71 °F 63 °F 86 °F (1949)
Min Temperature 41 °F 46 °F 30 °F (1876)
Degree Days  
Heating Degree Days 9    
Growing Degree Days 6 (Base 50)    
Moisture  
Dew Point 42 °F    
Average Humidity 71    
Maximum Humidity 89    
Minimum Humidity 32    
Precipitation  
Precipitation 0.00 in - - ()
Sea Level Pressure  
Sea Level Pressure 30.28 in    
Wind  
Wind Speed 2 mph (ESE)    
Max Wind Speed 8 mph    
Max Gust Speed -    
Visibility 8 miles    
Events      
Averages and records for this station are not official NWS values.
T = Trace of Precipitation, MM = Missing Value Source: NWS Daily Summary

Daily Weather History Graph

Daily Weather History Graph

Search for Another Location

Airport or City:

Trip Planner

Search our weather history database for the weather conditions in past years. The results will help you decide how hot, cold, wet, or windy it might be!

Date:

Astronomy

Oct. 09, 2013 Rise Set
Actual Time 7:34 AM EDT 6:56 PM EDT
Civil Twilight 7:06 AM EDT 7:24 PM EDT
Nautical Twilight 6:34 AM EDT 7:56 PM EDT
Astronomical Twilight 6:02 AM EDT 8:28 PM EDT
Moon 12:30 PM EDT (10/9) 10:27 PM EDT (10/9)
Length of Visible Light 12h 18m
Length of Day
11h 22m
Waxing Crescent, 25% of the Moon is Illuminated
Oct 9
Waxing Crescent
Oct 11
First Quarter
Oct 18
Full
Oct 26
Last Quarter
Nov 3
New

Hourly Weather History & Observations

Time (EDT) Temp. Dew Point Humidity Pressure Visibility Wind Dir Wind Speed Gust Speed Precip Events Conditions
12:53 AM 48.9 °F 44.1 °F 83% 30.29 in 10.0 mi SSE 3.5 mph - N/A   Clear
1:53 AM 46.0 °F 43.0 °F 89% 30.29 in 10.0 mi Calm Calm - N/A   Clear
2:53 AM 45.0 °F 41.0 °F 86% 30.28 in 10.0 mi Calm Calm - N/A   Clear
3:53 AM 44.1 °F 41.0 °F 89% 30.28 in 10.0 mi Calm Calm - N/A   Clear
4:53 AM 43.0 °F 39.0 °F 86% 30.29 in 4.0 mi Calm Calm - N/A   Clear
5:27 AM 42.8 °F 39.2 °F 87% 30.29 in 1.8 mi Calm Calm - N/A   Clear
5:38 AM 42.8 °F 39.2 °F 87% 30.29 in 3.0 mi Calm Calm - N/A   Clear
5:50 AM 42.8 °F 39.2 °F 87% 30.29 in 1.8 mi Calm Calm - N/A   Clear
5:53 AM 42.1 °F 39.0 °F 89% 30.30 in 1.5 mi Calm Calm - N/A   Clear
6:09 AM 42.8 °F 39.2 °F 87% 30.30 in 3.0 mi Calm Calm - N/A   Clear
6:53 AM 42.1 °F 37.9 °F 85% 30.31 in 10.0 mi Calm Calm - N/A   Clear
7:30 AM 41.0 °F 37.4 °F 87% 30.31 in 1.8 mi Calm Calm - N/A   Clear
7:42 AM 41.0 °F 37.4 °F 87% 30.31 in 3.0 mi Calm Calm - N/A   Clear
7:53 AM 43.0 °F 39.0 °F 86% 30.32 in 8.0 mi Calm Calm - N/A   Clear
8:53 AM 50.0 °F 45.0 °F 83% 30.33 in 10.0 mi SSE 3.5 mph - N/A   Clear
9:53 AM 57.0 °F 46.9 °F 69% 30.33 in 10.0 mi SE 5.8 mph - N/A   Clear
10:53 AM 62.1 °F 46.0 °F 56% 30.33 in 10.0 mi SSE 8.1 mph - N/A   Clear
11:53 AM 64.9 °F 44.1 °F 47% 30.33 in 10.0 mi SE 6.9 mph - N/A   Clear
12:53 PM 66.9 °F 43.0 °F 42% 30.31 in 10.0 mi Variable 4.6 mph - N/A   Clear
1:53 PM 69.1 °F 41.0 °F 36% 30.29 in 10.0 mi ESE 4.6 mph - N/A   Clear
2:53 PM 71.1 °F 41.0 °F 34% 30.26 in 10.0 mi East 5.8 mph - N/A   Clear
3:53 PM 71.1 °F 41.0 °F 34% 30.25 in 10.0 mi ESE 5.8 mph - N/A   Clear
4:53 PM 71.1 °F 39.9 °F 32% 30.24 in 10.0 mi ESE 5.8 mph - N/A   Clear
5:53 PM 68.0 °F 46.0 °F 45% 30.25 in 10.0 mi ENE 6.9 mph - N/A   Clear
6:53 PM 62.1 °F 48.0 °F 60% 30.25 in 10.0 mi ENE 5.8 mph - N/A   Clear
7:53 PM 55.9 °F 48.9 °F 77% 30.24 in 10.0 mi ENE 3.5 mph - N/A   Clear
8:53 PM 55.0 °F 50.0 °F 83% 30.24 in 10.0 mi East 3.5 mph - N/A   Clear
9:53 PM 55.9 °F 46.9 °F 72% 30.24 in 10.0 mi ESE 5.8 mph - N/A   Clear
10:53 PM 53.1 °F 44.1 °F 71% 30.24 in 10.0 mi SE 5.8 mph - N/A   Clear
11:53 PM 53.1 °F 43.0 °F 69% 30.23 in 10.0 mi SE 5.8 mph - N/A   Clear